Content
SEND FEEDBACK

Daily
Averages
Monthly
Summary
United States of America

UPI, GUAM


Home > North America > United States > Guam
Elevation: 53 feet     Latitude: 13 34N     Longitude: 144 55E

WEATHER
 
SELECT A DAY
Number of Records: 209,340;   Date Range: 1/1/95 - 9/20/14
 
SHARE

PRINT THIS DATA

[ ← Previous Day ]
WEATHER ALMANAC - APRIL 10, 2014
[ Next Day → ]
[ °C ]   °F
Weather ElementAverageHighLow
Temperature83.8 °F89.1 °F (3:54 pm)80.1 °F (4:54 am)
Dewpoint73.8 °F75.9 °F (8:54 pm)72 °F (9:54 am)
Humidity72.4 %85 % (8:54 pm)61 % (10:54 am)
Barometer29.83 in29.89 in (8:54 am)29.77 in (3:54 pm)
Wind Speed10.6 mph15 mph (1:54 pm)
Weather ElementAverage
Visibility10 mi
Wind DirectionENE (72 °)

Weather ElementTotal
Precipitation---
Cooling Degree Days19.6 (Base 65)
Growing Degree Days34.6 (Base 50)
Averaged from 25 records on April 10, 2014
WEATHER CONDITIONS BREAKOUT
WIND DIRECTION BREAKOUT
WEATHER BY HOUR - APRIL 10, 2014
[ °C ]   °F
Local TimeTemperatureDewpointHumidityBarometerVisibilityWind DirectionWind SpeedGust SpeedPrecipitationEventsConditions
1:54 AM81.0 °F73.0 °F77 %29.83 in10.0 miENE (70°)8.1 mphMostly Cloudy
2:54 AM81.0 °F73.0 °F77 %29.83 in10.0 miNE (50°)10.4 mphMostly Cloudy
3:54 AM81.0 °F73.0 °F77 %29.82 in10.0 miEast (90°)6.9 mph0.00 inClear
4:54 AM80.1 °F73.0 °F79 %29.83 in10.0 miEast (80°)8.1 mphPartly Cloudy
5:54 AM80.1 °F73.0 °F79 %29.84 in10.0 miEast (80°)8.1 mphPartly Cloudy
6:54 AM81.0 °F73.0 °F77 %29.86 in10.0 miEast (80°)9.2 mphScattered Clouds
7:54 AM82.9 °F73.0 °F72 %29.88 in10.0 miEast (90°)11.5 mphScattered Clouds
8:54 AM84.0 °F73.0 °F69 %29.89 in10.0 miEast (80°)10.4 mphScattered Clouds
9:54 AM86.0 °F72.0 °F63 %29.88 in10.0 miENE (60°)11.5 mphPartly Cloudy
10:54 AM87.1 °F72.0 °F61 %29.87 in10.0 miEast (80°)12.7 mphScattered Clouds
11:54 AM86.0 °F73.0 °F65 %29.86 in10.0 miEast (90°)12.7 mphScattered Clouds
12:54 PM88.0 °F73.0 °F61 %29.83 in10.0 miEast (80°)12.7 mphScattered Clouds
1:54 PM88.0 °F73.0 °F61 %29.80 in10.0 miENE (60°)15.0 mphPartly Cloudy
2:54 PM88.0 °F73.0 °F61 %29.78 in10.0 miNE (50°)12.7 mphPartly Cloudy
3:54 PM89.1 °F73.9 °F61 %29.77 in10.0 miNE (50°)15.0 mphPartly Cloudy
4:05 PM87.8 °F73.4 °F62 %29.80 in10.0 miENE (60°)12.7 mphMostly Cloudy
4:34 PM84.2 °F73.4 °F70 %29.81 in10.0 miEast (80°)12.7 mphScattered Clouds
4:54 PM84.9 °F75.0 °F72 %29.79 in10.0 miEast (90°)11.5 mphPartly Cloudy
5:54 PM82.9 °F75.0 °F77 %29.81 in10.0 miEast (80°)10.4 mphClear
6:54 PM82.0 °F75.0 °F79 %29.82 in10.0 miENE (60°)8.1 mphClear
7:54 PM82.0 °F75.0 °F79 %29.84 in10.0 miENE (60°)9.2 mphClear
8:54 PM81.0 °F75.9 °F85 %29.85 in10.0 miNE (50°)9.2 mphClear
9:54 PM82.0 °F75.9 °F82 %29.86 in10.0 miEast (80°)9.2 mphClear
10:54 PM82.0 °F75.9 °F82 %29.87 in10.0 miEast (80°)8.1 mphClear
11:54 PM82.0 °F75.9 °F82 %29.85 in10.0 miENE (70°)8.1 mphClear
Hourly data recorded from PGUM, located miles away from Upi, Guam







STORIES FROM OUR PARTNERS